CAPE
0 0 0 0 0 0 0 0 0 0 0 0 0 0 0 0 0 0 0 0 1 1 1 2 1 1 1 0 1 1 1 1 2 0 0 0 0 1 0 1 3 3 3
0 0 0 0 0 0 0 0 0 0 0 0 0 0 0 0 0 0 0 0 0 0 1 2 1 1 1 0 0 1 1 1 2 1 0 0 2 0 0 1 3 4 4
0 0 0 0 0 0 0 0 0 0 0 0 0 0 0 0 0 0 0 0 0 0 0 0 1 2 3 2 0 0 1 2 2 2 0 1 1 0 1 1 2 2 2
0 0 0 0 0 0 0 0 0 0 0 0 0 0 0 0 0 0 0 0 0 0 0 0 0 1 2 2 2 1 1 0 1 2 2 2 2 2 0 1 2 0 0
0 0 0 0 0 0 0 0 0 0 0 0 0 0 0 0 0 0 0 0 0 0 0 0 0 0 0 0 3 2 1 1 2 2 3 3 11 2 1 1 2 0 0
0 0 0 0 0 0 0 0 0 0 0 0 0 0 0 0 0 0 0 0 0 0 0 0 0 0 0 0 0 1 2 2 1 1 2 2 2 2 1 1 1 0 0
0 0 0 0 0 0 0 0 0 0 0 0 0 0 0 0 0 0 0 0 7 2 0 1 0 0 0 0 0 0 0 0 0 0 0 1 1 0 1 1 0 0 1
0 0 0 0 0 0 0 0 0 0 0 0 0 0 0 0 0 0 0 0 0 0 1 1 0 0 0 0 0 0 0 0 0 0 0 0 0 0 0 1 1 1 1
0 0 0 0 0 0 0 0 0 0 0 0 0 0 0 0 0 0 0 0 1 0 0 0 0 0 0 0 0 0 0 0 0 0 0 0 0 0 0 0 1 1 2
0 0 0 0 0 0 0 0 0 0 0 0 0 0 0 0 0 0 0 0 0 0 0 0 0 0 0 0 0 0 0 0 0 0 0 0 0 0 0 0 0 1 1
0 0 0 0 0 0 0 0 0 0 0 0 0 0 0 0 0 0 0 0 0 0 0 0 0 0 0 0 0 0 0 0 0 0 0 0 0 0 0 0 0 0 0
0 0 0 0 0 0 0 0 0 0 0 0 0 0 0 0 0 0 0 0 0 0 0 0 0 0 0 0 0 0 0 0 0 0 0 0 0 0 0 0 0 0 0
0 0 0 0 0 0 0 0 0 0 0 0 0 0 0 0 0 0 0 0 0 0 0 0 0 0 0 0 0 0 0 1 1 0 0 0 0 0 0 0 0 0 0
0 0 0 0 0 0 0 0 0 0 0 0 0 0 0 0 0 0 0 0 0 0 0 0 0 0 0 0 0 0 0 1 2 2 2 0 0 0 0 0 0 0 0
0 0 0 0 0 0 0 0 0 0 0 0 0 0 0 0 0 0 0 0 0 0 0 0 0 0 0 0 0 1 3 1 1 1 1 2 2 1 1 0 0 0 0
0 0 0 0 0 0 0 0 0 0 0 0 0 0 0 0 0 0 0 0 0 0 0 0 1 2 1 2 2 2 2 1 0 1 2 3 3 2 0 0 0 0 0
0 0 0 0 0 0 0 0 0 0 0 0 0 0 0 0 0 0 0 0 0 0 1 4 7 2 1 1 1 1 0 1 1 0 1 2 2 2 1 1 1 0 0
0 0 0 0 0 0 0 0 0 0 0 0 0 0 0 0 0 0 0 0 2 2 4 1 1 1 0 0 0 1 0 0 0 0 0 1 2 1 1 1 1 1 0
0 0 0 0 0 0 0 0 0 0 0 0 0 0 0 0 0 0 3 3 1 1 1 1 1 0 0 0 1 0 0 0 0 0 1 1 1 2 1 1 1 0 0
0 0 0 0 0 0 0 0 0 0 0 0 0 0 0 0 0 2 2 1 1 1 0 1 1 0 1 0 0 0 0 0 0 1 1 1 1 1 1 1 1 0 0
0 0 0 0 0 0 0 0 0 0 0 0 0 0 0 0 1 2 1 1 1 1 1 1 1 1 1 1 1 1 1 1 1 1 1 1 1 1 1 1 1 0 0
0 0 0 0 0 0 0 0 0 0 0 0 0 0 0 1 1 1 2 2 2 2 2 2 2 2 2 2 2 1 1 1 1 1 1 1 1 1 1 1 0 0 0
0 0 0 0 0 0 0 0 0 0 0 0 0 0 1 1 1 2 2 3 3 2 2 3 2 2 2 3 2 2 1 0 0 1 0 0 0 0 1 0 0 0 0
0 0 0 0 0 0 0 0 0 0 0 0 0 1 2 2 2 2 3 3 3 3 3 2 2 3 2 3 2 2 1 1 0 0 0 0 0 0 0 0 0 0 0
0 0 0 0 0 0 0 0 0 0 0 0 1 2 1 2 2 2 3 3 3 3 3 2 2 3 3 3 1 0 0 0 0 0 0 0 0 0 0 0 0 0 0
0 0 0 0 0 0 0 0 0 0 0 0 1 2 2 3 2 3 3 3 3 3 2 2 2 2 2 2 0 0 0 0 0 0 0 0 0 0 0 0 1 2 1
CIN
0 0 0 0 0 0 0 0 0 0 0 0 0 0 0 0 0 0 0 0 0 0 0 0 0 0 0 0 0 0 0 0 0 0 0 0 0 0 0 0 0 0 0
0 0 0 0 0 0 0 0 0 0 0 0 0 0 0 0 0 0 0 0 0 0 0 0 0 0 0 0 0 0 0 0 0 0 0 0 0 0 0 0 0 0 0
0 0 0 0 0 0 0 0 0 0 0 0 0 0 0 0 0 0 0 0 0 0 0 0 0 0 0 0 0 0 0 0 0 0 0 0 0 0 0 0 0 0 0
0 0 0 0 0 0 0 0 0 0 0 0 0 0 0 0 0 0 0 0 0 0 0 0 0 0 0 0 0 0 0 0 0 0 0 0 0 -40 0 0 0 0 0
0 0 0 0 0 0 0 0 0 0 0 0 0 0 0 0 0 0 0 0 0 0 0 0 0 0 0 0 0 0 0 0 0 0 0 0 -9 -9 0 0 0 0 0
0 0 0 0 0 0 0 0 0 0 0 0 0 0 0 0 0 0 0 -1 -1 0 0 0 0 0 0 0 0 -6 -1 0 0 0 0 0 0 0 0 0 0 0 0
0 0 0 0 0 0 0 0 0 0 0 0 0 0 0 0 0 0 0 0 -39 -49 -15 -55 0 0 0 0 0 0 0 0 0 0 0 0 0 0 0 0 0 0 0
0 0 0 0 0 0 0 0 0 0 0 0 0 0 0 0 0 0 0 0 -9 -38 -34 -22 -24 0 0 0 0 0 0 0 0 0 0 0 0 0 0 0 0 0 0
0 0 0 0 0 0 0 0 0 0 0 0 0 0 0 0 0 0 0 0 -48 -47 0 0 0 0 0 0 0 0 0 0 0 0 -4 0 0 0 0 0 0 0 0
0 0 0 0 0 0 0 0 0 0 0 0 0 0 0 0 0 0 0 0 0 0 0 0 0 0 0 0 0 0 0 0 0 0 0 0 0 -1 0 0 0 0 0
0 0 0 0 0 0 0 0 0 0 0 0 0 0 0 0 0 0 0 0 0 0 0 0 0 0 0 0 0 0 0 0 0 0 0 0 0 0 0 0 0 0 0
0 0 0 0 0 0 0 0 0 0 0 0 0 0 0 0 0 0 0 0 0 0 0 0 0 0 0 0 0 0 0 0 0 0 0 0 0 0 0 0 0 0 0
0 0 0 0 0 0 0 0 0 0 0 0 0 0 0 0 0 0 0 0 0 0 0 0 0 0 0 0 0 0 0 0 0 0 0 0 0 0 0 0 0 0 0
0 0 0 0 0 0 0 0 0 0 0 0 0 0 0 0 0 0 0 0 0 0 0 0 0 0 0 0 0 0 0 0 0 0 0 0 0 0 0 0 0 0 0
0 0 0 0 0 0 0 0 0 0 0 0 0 0 0 0 0 0 0 0 0 0 0 0 0 0 0 0 -1 -1 0 0 0 0 0 0 0 0 0 0 0 0 0
0 0 0 0 0 0 0 0 0 0 0 0 0 0 0 0 0 0 0 0 0 0 0 0 0 0 0 0 0 0 0 0 0 0 0 0 0 0 0 0 0 0 0
0 0 0 0 0 0 0 0 0 0 0 0 0 0 0 0 0 0 0 0 0 0 0 0 0 0 0 0 0 0 0 0 0 0 0 0 0 0 0 0 0 0 0
0 0 0 0 0 0 0 0 0 0 0 0 0 0 0 0 0 0 0 -1 0 0 0 0 -1 0 0 0 0 0 -1 0 0 0 0 0 0 0 0 0 0 0 0
0 0 0 0 0 0 0 0 0 0 0 0 0 0 0 0 0 0 -1 0 0 0 0 0 0 0 0 0 -2 0 0 0 0 0 0 0 0 0 0 0 0 0 0
0 0 0 0 0 0 0 0 0 0 0 0 0 0 0 0 0 0 0 0 0 0 0 0 -1 0 0 0 0 0 0 0 0 0 0 0 0 0 0 0 0 0 0
0 0 0 0 0 0 0 0 0 0 0 0 0 0 0 0 0 0 0 0 0 0 0 0 0 0 0 0 0 0 0 0 0 0 0 0 0 0 0 0 0 0 0
0 0 0 0 0 0 0 0 0 0 0 0 0 0 -1 0 0 0 0 0 0 0 0 0 0 0 0 0 0 0 0 0 0 0 0 0 0 0 0 0 0 0 0
0 0 0 0 0 0 0 0 0 0 0 0 0 0 0 0 0 0 0 0 0 0 0 0 0 0 0 0 0 0 0 0 0 0 0 0 0 0 0 0 0 0 0
0 0 0 0 0 0 0 0 0 0 0 0 0 0 0 0 0 0 0 0 0 0 0 0 0 0 0 0 0 0 0 0 0 0 0 0 0 0 0 0 0 0 0
0 0 0 0 0 0 0 0 0 0 0 0 0 0 0 0 0 0 0 0 0 0 0 0 0 0 0 0 0 0 0 0 0 0 0 0 0 0 0 0 0 0 0
0 0 0 0 0 0 0 0 0 0 0 0 0 0 0 0 0 0 0 0 0 0 0 0 0 0 0 0 0 0 0 0 0 0 0 0 0 0 0 0 0 0 0
Wind_Speed
24 28 30 31 32 33 33 34 35 33 31 31 30 31 32 34 33 32 35 31 29 25 20 15 15 11 10 12 12 12 11 10 6 4 2 20 22 21 21 19 16 14 11
26 29 29 30 33 33 35 35 33 33 29 29 29 27 30 32 32 33 34 33 31 30 30 31 30 25 25 17 15 15 13 11 9 3 10 16 18 17 19 15 11 9 8
27 28 29 32 34 34 34 34 33 30 29 29 26 25 27 28 32 32 31 30 29 27 33 37 36 37 35 33 20 17 15 13 10 6 7 9 17 18 15 12 11 11 9
28 29 31 32 31 32 34 34 32 29 29 27 24 23 26 26 29 32 31 29 29 28 27 29 32 35 36 33 29 23 16 13 11 10 5 6 17 15 15 11 10 10 10
28 29 30 30 29 32 33 34 30 31 29 24 24 27 27 26 24 27 28 28 25 28 31 33 32 36 36 34 32 30 27 24 21 21 23 10 14 15 16 15 13 11 11
28 28 27 27 28 30 32 34 32 33 29 26 28 26 26 27 29 34 23 20 23 27 28 30 30 30 30 28 25 28 29 30 30 28 27 26 15 18 19 17 14 14 14
26 26 26 25 27 27 30 33 33 32 28 29 27 28 31 32 34 34 27 23 23 27 27 29 30 30 33 31 29 28 28 29 29 27 27 26 23 21 20 18 13 14 14
26 26 26 25 27 24 27 31 32 32 33 30 29 29 31 33 35 35 33 26 26 25 26 29 31 31 33 32 29 29 28 28 28 27 26 25 24 23 21 19 16 13 11
26 27 25 26 24 22 25 28 31 33 34 32 28 29 31 33 35 36 34 29 27 27 27 28 31 30 34 34 30 30 29 29 28 26 25 24 24 23 22 19 16 12 13
27 25 23 24 22 22 22 25 28 30 31 33 32 31 30 32 34 36 35 30 30 29 29 29 30 32 33 34 30 29 28 28 28 27 26 25 24 23 23 21 19 15 13
24 23 25 22 22 20 19 22 24 28 31 33 34 34 34 32 32 36 36 32 30 28 29 30 30 33 32 32 30 28 24 20 25 26 26 25 24 24 22 21 19 17 14
24 24 25 25 23 20 18 19 21 24 28 32 34 35 34 33 34 35 36 35 33 30 30 29 29 31 31 30 30 31 29 26 25 25 25 25 25 24 23 21 19 18 16
24 25 26 25 24 21 20 19 20 21 26 29 31 34 33 31 32 35 35 35 32 30 28 27 27 28 27 26 29 30 28 27 27 26 25 25 25 25 24 22 20 18 17
25 26 27 26 25 22 22 22 21 21 22 26 30 32 32 29 29 31 30 30 30 30 29 27 26 24 27 26 27 27 26 26 26 26 26 26 25 24 23 22 21 20 19
24 26 27 27 26 23 21 21 23 20 20 25 29 29 31 32 28 28 29 30 30 28 27 25 26 27 27 29 27 26 26 26 25 25 25 25 24 24 23 23 21 20 19
24 26 26 27 26 24 24 27 25 21 21 23 24 24 28 24 25 27 29 28 29 28 26 25 26 24 25 26 25 24 23 23 23 24 24 24 24 23 23 22 20 19 18
24 23 26 27 25 25 24 27 30 27 28 29 33 34 34 31 29 30 33 31 28 26 23 24 26 29 27 24 24 21 21 19 17 20 22 22 22 21 21 21 20 18 18
22 22 26 26 25 25 24 25 26 27 29 32 34 36 37 38 37 37 33 30 28 29 28 29 26 27 26 20 21 18 16 16 15 12 8 12 15 17 18 17 16 15 15
23 25 25 25 26 26 25 25 25 27 30 32 34 36 36 34 33 30 31 33 33 29 31 28 28 28 22 17 16 11 13 13 11 9 9 9 9 9 11 12 13 14 14
24 24 25 26 27 28 27 26 25 28 31 32 33 34 32 35 35 35 36 32 32 29 28 29 25 23 15 10 12 8 12 13 11 9 9 9 9 9 10 11 12 13 15
24 24 25 26 28 28 28 26 26 28 30 30 31 29 36 34 33 34 33 32 31 29 26 23 19 14 11 9 9 8 13 14 13 11 10 9 8 9 9 10 12 14 15
23 24 25 26 27 28 27 27 27 28 30 29 29 31 34 32 31 29 27 28 23 23 22 21 19 15 12 9 9 10 11 11 11 10 10 9 8 8 8 10 12 14 14
24 24 24 26 27 29 29 29 29 30 31 32 34 31 32 31 28 21 22 16 15 17 18 19 15 12 10 9 11 13 13 13 11 10 9 7 6 6 6 7 7 11 12
24 24 24 26 28 28 29 29 30 31 32 33 33 30 31 28 18 16 14 6 11 11 15 15 12 9 7 7 10 11 11 10 8 9 8 6 4 5 5 6 7 8 10
24 23 24 26 27 27 28 28 29 30 33 33 28 29 27 25 9 14 2 3 7 8 14 14 10 5 5 4 7 9 8 6 7 7 6 5 4 4 5 6 6 9 13
24 24 24 25 26 26 26 28 29 30 33 12 31 29 26 3 2 4 5 3 4 7 16 15 5 7 5 3 5 5 1 2 3 3 5 5 4 4 5 7 10 13 14
Wind_Direction
346 343 347 347 350 350 351 352 352 352 355 0 2 3 5 5 8 13 9 17 23 27 30 36 33 28 31 33 35 36 37 41 34 278 290 270 264 254 264 263 269 277 287
344 344 347 352 350 352 353 353 354 356 358 359 1 8 7 5 9 8 10 14 21 24 27 21 20 28 25 30 33 35 39 44 43 350 276 267 252 243 269 276 277 296 320
347 351 352 350 352 355 356 356 356 357 356 356 4 11 10 11 6 8 14 16 21 28 21 11 10 3 11 11 31 32 35 38 40 27 291 235 225 255 287 307 291 287 311
351 352 350 352 359 1 2 2 2 1 356 2 9 11 9 11 7 7 11 14 18 22 27 28 24 18 13 19 25 31 37 40 43 40 63 210 217 265 265 292 330 315 302
350 348 351 359 6 7 8 8 9 0 4 13 13 9 11 12 17 15 15 17 22 20 19 17 19 10 4 18 24 28 32 34 37 39 42 103 73 335 296 280 304 333 324
345 349 359 5 8 11 11 11 9 360 9 15 8 15 14 12 6 327 24 29 27 23 21 20 20 19 21 23 29 30 26 20 19 21 17 8 303 288 289 294 305 306 303
351 357 3 9 13 13 15 13 12 9 15 9 11 11 6 2 340 337 16 27 26 20 19 19 16 15 8 13 16 18 16 12 11 10 0 353 344 308 294 304 319 309 304
353 360 6 15 12 19 17 11 12 8 5 9 11 11 5 0 349 348 358 20 20 22 20 16 14 12 7 4 7 4 4 3 357 357 355 341 335 324 320 314 314 327 329
352 1 12 13 16 22 17 12 8 7 4 11 19 15 8 5 358 355 2 13 16 16 15 15 12 10 3 357 359 356 355 353 348 344 345 344 338 335 328 322 321 328 308
353 7 13 15 22 21 20 17 13 13 13 12 11 16 17 9 6 2 5 13 12 14 15 14 11 6 2 358 360 357 352 348 342 335 335 336 337 330 330 332 318 320 309
4 10 9 20 20 21 24 20 18 12 10 4 1 359 2 11 11 2 3 11 13 14 13 12 12 7 6 4 6 9 14 18 353 343 336 333 331 331 329 328 333 335 328
1 7 14 16 18 22 26 22 19 16 10 5 1 358 4 9 10 5 3 7 10 13 12 13 14 10 8 7 5 359 360 2 0 354 348 337 327 323 322 322 328 328 328
1 9 9 13 17 24 25 23 20 18 11 7 6 4 8 13 12 7 6 8 12 13 13 13 11 11 11 10 3 356 358 357 353 349 344 339 333 323 321 319 317 319 326
2 4 5 10 13 22 25 20 19 17 13 10 7 6 10 15 15 13 14 14 11 10 9 9 10 11 7 5 2 0 359 355 350 347 341 335 333 328 325 322 316 307 307
6 4 5 9 13 19 23 20 14 17 16 8 4 7 7 9 13 12 10 8 7 6 6 8 9 9 7 4 4 1 358 356 352 347 342 337 332 329 326 323 319 311 300
2 3 7 9 14 20 20 14 10 12 12 9 11 11 7 13 11 8 6 5 4 5 9 8 7 8 9 9 11 11 11 8 3 353 343 330 326 327 325 321 321 313 298
5 12 8 7 16 19 20 16 9 8 360 357 356 358 0 6 8 6 4 5 6 9 11 12 11 8 10 15 20 27 26 32 33 18 355 323 320 315 310 314 316 308 296
13 16 8 11 18 19 20 18 17 15 8 360 354 354 356 358 1 3 8 10 13 15 17 14 16 16 16 28 33 42 52 53 63 82 155 234 263 280 295 296 284 282 274
10 8 10 15 18 20 21 20 20 17 8 3 1 1 2 8 11 15 16 16 17 22 19 21 22 21 34 47 53 73 72 75 90 116 141 163 185 202 218 235 242 248 264
11 12 14 17 17 18 20 22 23 14 7 5 4 8 13 12 16 19 19 26 26 29 29 29 33 39 59 72 73 103 83 79 100 125 149 156 178 191 206 222 231 243 258
12 14 16 18 17 22 22 24 22 16 12 13 15 18 8 15 22 25 32 37 38 41 44 46 53 62 69 78 87 105 85 84 96 116 134 149 169 191 204 218 226 239 257
14 16 18 18 21 22 22 20 21 16 14 17 20 18 15 22 29 38 46 47 53 54 55 57 61 68 73 82 94 98 100 106 117 126 134 144 158 180 203 223 246 259 252
15 18 21 22 22 20 20 21 21 17 13 9 4 20 20 25 36 52 51 58 58 58 59 60 65 69 76 85 94 96 98 103 111 122 130 146 189 204 197 197 195 224 217
16 21 24 25 23 24 23 24 19 16 12 357 9 21 20 30 56 62 63 57 58 58 61 61 64 65 67 79 88 91 95 106 122 116 113 121 141 203 194 169 176 171 171
19 24 27 24 25 25 23 25 21 20 353 347 27 23 27 35 82 68 27 35 53 52 56 58 60 52 60 62 84 88 97 119 114 117 124 131 144 155 154 155 152 144 124
22 26 25 26 25 27 27 24 21 19 3 45 19 24 30 127 118 86 307 15 29 45 54 58 29 322 330 52 83 88 106 119 135 140 135 129 138 145 135 127 122 123 130